Location: Narrabri
(30.3170°S, 149.7830°E)
Time: 03:52:29
(UTC+11:00)

N. Korean satellite - Pass Details

Date: 16 October 2017
Orbit: 461 x 513 km, 97.2° (Epoch: 17 December)

Event Time Altitude Azimuth Distance (km) Brightness Sun altitude
Rises 20:42:12 0° 193° (SSW) 2,658 10.8 -19.5°
Reaches altitude 10° 20:45:08 10° 217° (SW) 1,755 10.3 -20.1°
Maximum altitude 20:47:10 14° 250° (WSW) 1,496 10.1 -20.5°
Drops below altitude 10° 20:49:11 10° 283° (WNW) 1,730 10.1 -20.9°
Sets 20:52:03 0° 308° (NW) 2,594 10.6 -21.4°
